Weather in Alkhan-Yurt

Russia / Chechen Republic     43°13′42″N   45°33′49″E
temp.,
°C
wind,
m/s
gust,
m/s
humid.,
%
clouds,
%
prec.,
mm/h
press.,
hPa
HPBL,
m
19 january, tue
tue1900:000nnw3463100 0.1 1016487
03:00−2n1285100 0.5 1018270
06:00−2nw2393100 0.8 1020242
09:00−2nnw128599 1.1 1021291
12:000ese116665 0.0 1020611
15:00+1sse225982 0.0 1018453
18:00−1ne236649 0.0 102180
21:00−2e237326 0.0 1021113
20 january, wed
wed2000:00−3ssw017447 0.0 102272
03:00−3wnw127465 0.0 1022136
06:00−3nw1194100 1.0 1023147
09:00−3ne2385100 1.7 1024392
12:00−2ene2374100 0.1 1023668
15:00−1ene2273100 0.1 1023658
18:00−3ne2292100 0.1 102693
21:00−3ne1394100 0.3 1027203
21 january, thu
thu2100:00−4se119496 0.1 102847
03:00−4wsw118995 0.1 102858
06:00−4wsw2384100 0.1 1030160
09:00−3wnw237999 0.1 1032351
12:00−2nw236797 0.1 1032726
15:000w254964 0.1 10321016
18:00−3wnw12620 0.0 103421
21:00−4sw11670 0.0 103521
22 january, fri
fri2200:00−4wsw11650 0.0 103521
03:00−4sw11560 0.0 103421
06:00−4sw11510 0.0 103321
09:00−1nw11450 0.0 103330
12:00+2e11360 0.0 1031218
15:00+3ene12420 0.0 1029212
18:00−1se01560 0.0 103021
21:00−2w11580 0.0 103021
23 january, sat
sat2300:00−2w11570 0.0 102921
03:00−2wnw115443 0.0 102921
06:00−2wnw1150100 0.0 102821
09:000ene114797 0.0 102935
12:00+3ene113814 0.0 1026275
15:00+4ne11387 0.0 1025256
18:00−1sse11530 0.0 102622
21:00−1wsw115527 0.0 102621